Regional Weather Roundup
Issued by NWS

Home | Current Version | Previous Version | Text Only | Print | Product List | Glossary On
Versions: 1 2 3 4 5 6 7 8 9 10 11 12 13 14 15 16 17 18 19 20 21 22 23 24 25 26 27
000
ASUS46 KSEW 311210
RWRWA

WASHINGTON REGIONAL WEATHER ROUNDUP
NATIONAL WEATHER SERVICE SEATTLE WA
500 AM PDT TUE MAY 31 2016

NOTE:"FAIR" INDICATES FEW OR NO CLOUDS BELOW 12,000 FEET WITH NO
SIGNIFICANT WEATHER AND/OR OBSTRUCTIONS TO VISIBILITY.

WAZ505-507>509-311300-
SEATTLE, TACOMA, EVERETT, AND VICINITY

CITY           SKY/WX    TMP DP  RH WIND       PRES   REMARKS
EVERETT        CLEAR     51  44  77 CALM      30.15S
6HR MIN TEMP:  50; 6HR MAX TEMP:  57;

BOEING FIELD   CLEAR     55  49  80 CALM      30.15S
6HR MIN TEMP:  54; 6HR MAX TEMP:  63;

RENTON         CLEAR     51  47  86 CALM      30.14F
6HR MIN TEMP:  50; 6HR MAX TEMP:  60;

SEATAC AIRPORT PTCLDY    53  48  83 N3        30.15S
6HR MIN TEMP:  53; 6HR MAX TEMP:  61;

JBLM-MCCHORD   PTCLDY    45  45  99 S1        30.14S
6HR MIN TEMP:  44; 6HR MAX TEMP:  59;

PUYALLUP       FAIR      45  45 100 CALM      30.14S
BREMERTON      PTCLDY    46  43  87 CALM      30.16F
6HR MIN TEMP:  46; 6HR MAX TEMP:  54;

JBLM-FT LEWIS  PTCLDY    46  42  86 SE3       30.13F
6HR MIN TEMP:  45; 6HR MAX TEMP:  57;

TACOMA NARROWS PTCLDY    51  43  74 CALM      30.14S
6HR MIN TEMP:  51; 6HR MAX TEMP:  60;

$$

WAZ001-503-506-510-514-515-311300-
NORTH INTERIOR

CITY           SKY/WX    TMP DP  RH WIND       PRES   REMARKS
BELLINGHAM     PTCLDY    49  47  93 NW3       30.15S
6HR MIN TEMP:  47; 6HR MAX TEMP:  53;

FRIDAY HARBOR  MOCLDY    46  43  89 CALM      30.16F
6HR MIN TEMP:  44; 6HR MAX TEMP:  50;

EASTSOUND      PTCLDY    48  45  87 S3        30.14S
PORT ANGELES   CLOUDY    47  42  83 CALM      30.16S
6HR MIN TEMP:  46; 6HR MAX TEMP:  52;

EDIZ HOOK      FAIR      51  46  82 CALM      30.16F
6HR MIN TEMP:  50; 6HR MAX TEMP:  55;

PORT TOWNSEND  FAIR      45  45 100 CALM      30.16S
NAS WHIDBEY    PTCLDY    49  46  90 N3        30.19S
6HR MIN TEMP:  46; 6HR MAX TEMP:  54;

ARLINGTON      CLEAR     45  37  76 N3        30.17S
6HR MIN TEMP:  45; 6HR MAX TEMP:  54;

BURLINGTON     CLEAR     48  46  93 CALM      30.15F
$$

WAZ020-022-039-040-504-511-512-311300-
SOUTHWEST INTERIOR

CITY           SKY/WX    TMP DP  RH WIND       PRES   REMARKS
SHELTON        MOCLDY    44  41  89 CALM      30.12F
6HR MIN TEMP:  43; 6HR MAX TEMP:  54;

OLYMPIA        MOCLDY    46  41  82 CALM      30.14S
6HR MIN TEMP:  43; 6HR MAX TEMP:  60;

CHEHALIS       NOT AVBL
KELSO          PTCLDY    48  41  76 CALM      30.14S
6HR MIN TEMP:  48; 6HR MAX TEMP:  61;

VANCOUVER      CLEAR     50  42  74 CALM      30.08F
6HR MIN TEMP:  49; 6HR MAX TEMP:  64;

SCAPPOOSE, OR  PTCLDY    54  41  61 N5        30.08S
6HR MIN TEMP:  54; 6HR MAX TEMP:  65;

PORTLAND, OR   PTCLDY    55  44  66 CALM      30.08F
6HR MIN TEMP:  54; 6HR MAX TEMP:  66;

$$

WAZ021-516-517-311300-
WASHINGTON COAST

CITY           SKY/WX    TMP DP  RH WIND       PRES   REMARKS
FORKS          CLOUDY    46  44  93 CALM      30.12F
6HR MIN TEMP:  45; 6HR MAX TEMP:  51;

HOQUIAM        MOCLDY    50  48  93 NE6       30.12F
6HR MIN TEMP:  50; 6HR MAX TEMP:  56;

ASTORIA, OR    MOCLDY    47  45  93 CALM      30.08F
6HR MIN TEMP:  47; 6HR MAX TEMP:  55;

$$

WAZ019-023-024-040-518-519-311300-
CASCADE MOUNTAINS AND COLUMBIA GORGE

CITY           SKY/WX    TMP DP  RH WIND       PRES   REMARKS
STAMPEDE PASS  CLEAR     43  36  76 VRB3      30.18F
6HR MIN TEMP:  43; 6HR MAX TEMP:  50;

TROUTDALE, OR  CLEAR     50  46  86 CALM      30.08F
6HR MIN TEMP:  50; 6HR MAX TEMP:  63;

THE DALLES, OR CLEAR     48  37  65 E8        30.13S
6HR MIN TEMP:  47; 6HR MAX TEMP:  62;

$$

WAZ026-027-041>044-520-521-311300-
EAST SLOPES

CITY           SKY/WX    TMP DP  RH WIND       PRES   REMARKS
OMAK           PTCLDY    53  37  54 N13       30.17S
6HR MIN TEMP:  51; 6HR MAX TEMP:  60;

WENATCHEE      PTCLDY    55  40  56 NW8       30.16R
6HR MIN TEMP:  54; 6HR MAX TEMP:  66;

ELLENSBURG     CLEAR     45  38  76 CALM      30.16S
6HR MIN TEMP:  43; 6HR MAX TEMP:  60;

YAKIMA         CLEAR     45  36  70 W6        30.15S
6HR MIN TEMP:  45; 6HR MAX TEMP:  55;

$$

WAZ028-034-035-311300-
COLUMBIA BASIN

CITY           SKY/WX    TMP DP  RH WIND       PRES   REMARKS
EPHRATA        PTCLDY    47  36  65 NE5       30.14S
6HR MIN TEMP:  47; 6HR MAX TEMP:  60;

MOSES LAKE     CLEAR     45  33  63 N9        30.15R
6HR MIN TEMP:  44; 6HR MAX TEMP:  65;

PASCO          CLEAR     44  40  85 CALM      30.14S
6HR MIN TEMP:  43; 6HR MAX TEMP:  54;

HERMISTON, OR  CLEAR     41  36  82 CALM      30.13R
6HR MIN TEMP:  41; 6HR MAX TEMP:  55;

$$

WAZ036>038-311300-
NORTHEAST WASHINGTON

CITY           SKY/WX    TMP DP  RH WIND       PRES   REMARKS
SPOKANE GEIGER PTCLDY    48  35  60 E3        30.17R
6HR MIN TEMP:  48; 6HR MAX TEMP:  57;

SPOKANE FELTS  CLEAR     46  40  79 CALM      30.18S
6HR MIN TEMP:  45; 6HR MAX TEMP:  54;

FAIRCHILD AFB  CLEAR     45  33  61 NE5       30.16S
6HR MIN TEMP:  44; 6HR MAX TEMP:  56;

COEURDALENE,ID CLEAR     41  37  87 E5        30.17S
6HR MIN TEMP:  41; 6HR MAX TEMP:  54;

DEER PARK      CLEAR     42  35  76 MISG      30.18S
6HR MIN TEMP:  36; 6HR MAX TEMP:  49;

$$

WAZ029>033-311300-
SOUTHEAST WASHINGTON

CITY           SKY/WX    TMP DP  RH WIND       PRES   REMARKS
PULLMAN        CLEAR     38  32  79 CALM      30.19S
6HR MIN TEMP:  37; 6HR MAX TEMP:  47;

LEWISTON, ID   CLEAR     47  36  65 S3        30.17S
6HR MIN TEMP:  46; 6HR MAX TEMP:  60;

WALLA WALLA    CLEAR     49  36  61 SE5       30.13S
6HR MIN TEMP:  47; 6HR MAX TEMP:  52;

PENDLETON, OR  CLEAR     44  37  76 E8        30.13S
6HR MIN TEMP:  44; 6HR MAX TEMP:  56;

$$




USA.gov is the U.S. government's official web portal to all federal, state and local government web resources and services.